Location: Emory University Observatory
(33.7903°N, 84.3267°W)
Time: 04:25:41
(UTC-05:00)

Hubble Space Telescope - Pass Details

Date: 09 October 2017
Orbit: 538 x 541 km, 28.5° (Epoch: 12 December)

Event Time Altitude Azimuth Distance (km) Brightness Sun altitude
Exits shadow 05:18:19 19° 127° (SE) 1,321 3.1 -29.6°
Drops below altitude 10° 05:19:40 10° 117° (ESE) 1,787 4.0 -29.4°
Sets 05:22:02 0° 109° (ESE) 2,678 5.2 -28.9°
